Cloud_Cover
0 0 0 0 0 0 0 0 0 0 0 0 0 0 0 0 0 0 0 0 0 0 0 0 0 5 0 6 12 1 0 9 6 14 14 93 99 100 100 100 79 100 100 96 36 50 97 60 14
0 0 0 0 0 0 0 0 0 0 0 0 0 0 0 0 0 0 0 0 0 0 0 0 0 0 0 0 0 0 0 17 85 99 75 8 100 100 100 100 100 100 100 97 100 100 100 77 96
0 0 0 0 0 0 0 0 0 0 0 0 0 0 0 0 0 0 0 0 0 0 0 0 0 5 1 0 0 0 20 100 100 100 100 93 96 100 80 98 100 100 100 100 100 100 100 100 97
0 0 0 0 0 0 0 0 0 0 0 0 0 0 0 0 0 0 0 0 0 0 0 0 12 29 12 0 1 100 100 100 98 41 15 82 79 94 56 62 99 100 100 100 100 100 100 100 100
0 0 0 0 0 0 0 0 0 0 0 0 0 0 0 0 0 0 0 0 0 0 0 0 4 9 2 3 6 45 88 22 0 0 0 0 0 4 21 74 28 30 10 57 54 74 92 81 19
0 0 0 0 0 0 0 0 0 0 0 0 0 0 0 0 0 0 0 0 0 0 0 0 0 0 0 0 0 0 0 0 0 0 0 0 0 0 0 0 0 0 0 0 0 0 1 0 0
0 0 0 0 0 0 0 0 0 0 0 0 0 0 0 0 0 0 0 0 0 0 0 0 0 0 0 0 0 0 0 0 0 0 0 0 0 0 0 0 0 0 0 0 0 0 0 0 0
0 0 0 0 0 0 0 0 0 0 0 0 0 0 0 0 0 0 0 0 0 0 0 0 0 0 0 0 0 0 0 0 0 0 0 0 0 0 0 0 0 0 0 0 0 0 0 0 0
0 0 0 0 0 0 0 0 0 0 0 0 0 0 0 0 0 0 0 0 0 0 0 0 0 0 0 0 0 0 0 0 0 0 0 0 0 0 0 0 0 0 0 0 0 0 0 0 0
0 0 0 0 0 0 0 0 0 0 0 0 0 0 0 0 0 0 0 0 0 0 0 0 0 0 0 0 0 0 0 0 0 0 0 0 0 0 0 0 0 0 0 0 0 0 0 0 0
0 0 0 0 0 0 0 0 0 0 0 0 0 0 0 0 0 0 0 0 0 0 0 0 0 0 0 0 0 0 0 0 0 0 0 0 0 0 0 0 0 0 0 0 0 0 0 0 0
0 0 0 0 0 0 0 0 0 0 0 0 0 0 0 0 0 0 0 0 0 0 0 0 0 0 0 0 0 0 0 0 0 0 0 0 0 0 0 0 0 0 0 0 0 0 0 0 0
3 10 0 0 0 0 0 0 0 0 0 0 0 0 0 0 0 0 0 0 0 0 0 0 0 0 0 0 0 0 0 0 0 0 0 0 0 0 0 0 0 0 0 0 0 0 0 0 0
98 100 4 8 3 1 0 0 0 0 0 0 0 0 0 0 0 0 0 0 0 0 0 0 0 0 0 0 0 0 0 0 0 0 0 0 0 0 0 0 0 0 0 0 0 0 0 0 0
85 44 8 100 5 0 1 83 5 0 0 0 0 0 0 0 0 0 0 0 0 0 0 0 0 0 0 0 0 0 0 0 0 0 0 0 0 0 0 0 0 0 0 0 0 0 0 0 0
5 2 35 100 3 0 5 100 24 0 0 0 0 0 1 0 0 0 0 0 0 0 0 0 0 5 3 0 0 0 0 0 0 0 0 0 0 0 0 0 0 0 0 0 0 0 0 0 0
2 33 51 54 29 0 1 99 100 8 0 0 0 0 0 0 30 2 0 0 0 2 0 2 6 35 41 5 2 0 0 0 0 0 0 0 0 0 0 0 0 0 0 0 0 0 1 0 1
5 2 5 5 98 3 0 58 100 41 0 0 0 0 0 0 5 1 0 0 0 4 5 4 5 5 25 69 9 5 3 0 0 2 0 0 0 4 0 0 0 0 0 0 0 3 2 0 0
5 0 0 5 2 0 0 60 100 100 100 5 0 0 0 0 0 0 1 0 0 3 5 1 5 5 5 5 5 5 5 5 5 5 5 5 8 5 5 5 1 0 0 0 0 4 4 4 8
5 5 0 3 2 1 1 12 100 100 100 100 0 0 0 0 0 0 0 0 0 0 2 5 5 5 4 1 4 18 10 20 5 6 6 20 42 36 26 45 12 5 5 5 5 5 5 5 5
4 3 5 4 3 5 5 72 70 100 100 100 85 0 0 0 0 0 0 0 0 0 0 5 5 5 5 4 5 5 5 6 8 6 70 43 87 99 100 99 48 5 5 5 5 5 5 14 20
100 99 39 6 5 21 11 28 100 100 100 100 96 96 40 0 0 0 0 0 0 0 0 0 0 0 0 0 0 1 4 19 30 5 5 9 20 49 19 9 30 34 70 82 70 93 91 60 7
9 98 99 100 43 70 24 26 100 100 100 100 100 100 100 62 5 1 0 0 0 0 0 0 0 0 0 0 0 2 5 6 5 23 72 90 90 90 85 68 26 38 5 6 16 34 8 5 5
5 78 39 100 89 100 100 100 94 100 100 100 100 100 98 100 100 94 60 13 1 0 0 0 0 0 0 0 0 1 5 5 33 62 64 9 1 3 33 7 6 22 60 68 81 39 5 5 1
5 5 11 11 7 100 96 92 100 100 76 100 100 100 100 100 97 100 100 100 100 94 7 1 0 0 0 5 19 3 4 3 5 39 51 35 16 5 5 5 5 3 5 4 3 2 2 2 2
99 52 14 72 0 14 70 96 100 100 100 100 100 100 100 100 100 100 100 100 100 100 100 100 100 93 24 49 49 15 99 59 72 79 63 100 89 41 5 2 30 49 28 16 6 5 5 5 3
100 100 100 100 38 1 2 69 100 100 100 100 100 53 100 100 100 100 100 100 100 100 100 100 100 100 100 100 100 100 100 92 100 80 76 79 60 100 100 100 93 54 94 42 5 9 6 5 5
100 100 100 100 100 100 38 1 100 100 100 100 100 100 100 100 100 100 100 100 100 100 100 100 69 6 13 82 97 96 99 100 99 47 23 6 12 5 5 5 86 100 100 100 89 6 5 7 5
100 100 100 100 100 100 100 60 88 99 100 100 100 100 100 100 100 100 100 63 92 100 100 100 100 100 100 98 93 69 100 37 41 100 100 100 65 13 74 68 7 42 57 80 86 84 5 42 35
100 100 100 100 100 100 100 100 100 100 100 73 100 100 44 61 100 100 100 100 100 100 100 100 80 92 100 100 100 100 100 100 100 98 99 100 100 60 20 100 100 92 100 100 100 100 70 5 35